Regional Weather Roundup
Issued by NWS San Angelo, TX

Home | Current Version | Previous Version | Text Only | Print | Product List | Glossary On
Versions: 1 2 3 4 5 6 7 8 9 10 11 12 13 14 15 16 17 18 19 20 21 22 23 24 25 26 27 28 29 30 31 32 33 34 35 36 37 38 39 40 41 42 43 44 45 46 47 48 49 50
000
ASUS44 KSJT 070410
RWRSJT
WEST CENTRAL TEXAS REGIONAL WEATHER ROUNDUP
NATIONAL WEATHER SERVICE SAN ANGELO TX
1100 PM CDT MON JUL 06 2015

NOTE: "FAIR" INDICATES FEW OR NO CLOUDS BELOW 12,000 FEET WITH NO
SIGNIFICANT WEATHER AND/OR OBSTRUCTIONS TO VISIBILITY.

TXZ049-054-064>066-071>073-076>078-098-099-113-114-127-128-139-140-
154-155-168>170-070500
...LOCATIONS ACROSS WEST CENTRAL TEXAS...

CITY           SKY/WX    TMP DP  RH WIND       PRES   REMARKS
SAN ANGELO     CLOUDY    84  65  52 S12       29.93R
ABILENE        CLOUDY    84  65  52 S15       29.95R
DYESS AFB      CLOUDY    84  66  54 S12       29.93R
JUNCTION       PTCLDY    81  67  62 SE7       29.98R
SWEETWATER     CLOUDY    79  68  68 N7G18     30.00R
BROWNWOOD      CLOUDY    82  64  54 S9G16     29.97R
COLEMAN        CLOUDY    82  66  58 S12G17    29.97R
SONORA         CLOUDY    82  66  57 SE14      30.01R
OZONA          FAIR      81  64  57 S15       29.99R
BRADY          CLEAR     81  66  61 N10       29.98R
$$

TEXAS PANHANDLE/OKLAHOMA PANHANDLE

CITY           SKY/WX    TMP DP  RH WIND       PRES   REMARKS
AMARILLO       LGT RAIN  68  64  87 N22G29    30.09R
BORGER         HVY RAIN  68  65  90 NE14      30.10R FOG
CANADIAN       CLOUDY    73  67  83 N12       30.05R
DALHART        CLOUDY    70  60  70 N13       30.19R
DUMAS          RAIN      64  62  92 N13       30.14R
GUYMON         NOT AVBL
HEREFORD       RAIN      67  67  98 MISG      30.13R
PAMPA          LGT RAIN  67  64  89 NE13      30.10R
PERRYTON         N/A     71  62  72 N12       30.10R
$$

SOUTHERN PANHANDLE/SOUTH PLAINS/ROLLING PLAINS

CITY           SKY/WX    TMP DP  RH WIND       PRES   REMARKS
LUBBOCK        TSTM      69  69 100 N16       30.03R FOG
SNYDER         CLOUDY    73  70  90 NE10      29.97S
CHILDRESS      TSTM      72  70  93 N21G31    30.00R FOG
SEMINOLE       CLOUDY    79  66  64 SE8       29.99R
$$

PERMIAN BASIN

CITY           SKY/WX    TMP DP  RH WIND       PRES   REMARKS
MIDLAND        CLOUDY    82  65  56 S18       29.94R
ODESSA         MOCLDY    81  64  56 S10       29.95R
WINK           MOCLDY    81  62  52 SE13      29.90R
$$

FAR WEST/SOUTHWEST MOUNTAINS/TRANS PECOS

CITY           SKY/WX    TMP DP  RH WIND       PRES   REMARKS
ALPINE         MOCLDY    72  61  68 SW15      30.12S
DRYDEN           N/A     77  67  71 SW7       29.95R
EL PASO        PTCLDY    92  51  24 W15G24    29.96R
FORT STOCKTON  PTCLDY    74  64  71 S10       29.94R
GUADALUPE PASS CLOUDY    75  58  55 NE18G32   30.11R
MARFA          MOCLDY   N/A N/A N/A SE6       30.13S
PECOS          PTCLDY    82  62  50 SE9       29.88R
$$

DALLAS/FORT WORTH METROPLEX

CITY           SKY/WX    TMP DP  RH WIND       PRES   REMARKS
DFW AIRPORT    MOCLDY    85  69  58 S16       29.95R
FTW MEACHAM    PTCLDY    85  71  63 S15       29.95R
DAL-EXECUTIVE  CLEAR     83  69  62 S9        29.97R
GRAND PRAIRIE  PTCLDY    83  71  66 S10       29.98R
ADDISON        CLEAR     85  71  61 S12G21    29.99R
MESQUITE       CLEAR     82  70  67 S9        29.98R
LANCASTER      CLEAR     82  69  65 S7        29.99R
$$

NORTH CENTRAL TEXAS

CITY           SKY/WX    TMP DP  RH WIND       PRES   REMARKS
SHRMAN/DENISON MOCLDY    83  72  68 S10       29.98R
GAINESVILLE    MOCLDY    81  68  64 SE7       29.99R
BRIDGEPORT     MOCLDY    83  69  63 SE7       29.96R
DENTON         PTCLDY    83  70  64 S13       29.95R
WAXAHACHIE     CLEAR     80  71  74 S8        29.99S
GRANBURY       CLOUDY    85  69  58 SE8       29.98R
$$

WESTERN NORTH TEXAS

CITY           SKY/WX    TMP DP  RH WIND       PRES   REMARKS
WICHITA FALLS  CLOUDY    84  67  56 S16       29.89S
VERNON         CLOUDY    87  59  39 NW15G26   29.94R
BRECKENRIDGE   CLOUDY    84  64  49 S9G16     29.93R
COMANCHE       CLOUDY    80  68  67 S8        29.98R
$$

CENTRAL AND SOUTH CENTRAL TEXAS

CITY           SKY/WX    TMP DP  RH WIND       PRES   REMARKS
AUSTIN/BERGSTM CLEAR     78  73  84 S9        29.98R
WACO           CLEAR     82  71  69 S14       29.99R
HILLSBORO      CLEAR     80  69  69 SE10      29.99R
TEMPLE         CLEAR     81  70  69 SE12      29.99R
KILLEEN-GRAY   CLEAR     79  71  74 S10       29.99R
FORT HOOD      CLEAR     80  70  73 S9        29.99R
GEORGETOWN     PTCLDY    81  70  69 S8G17     29.97S
LAGO VISTA     FAIR      79  72  77 S8G20     30.00S
SAN MARCOS     CLEAR     79  72  78 S10       29.99S
NEW BRAUNFELS  CLEAR     78  74  87 S8        29.98R
RANDOLPH AFB   MOCLDY    79  73  83 SE9       29.99R
SAN ANTONIO    CLOUDY    81  74  79 SE16      29.99R
STINSON        CLOUDY    80  74  81 SE10      29.96R
PLEASANTON     NOT AVBL
LA GRANGE      CLEAR     80  77  90 E3        29.99R
GIDDINGS       CLEAR     79  73  82 S5        30.05R
$$

EAST TEXAS

CITY           SKY/WX    TMP DP  RH WIND       PRES   REMARKS
PARIS          MOCLDY    79  72  78 S9        29.99R
CLARKSVILLE    NOT AVBL
TYLER          MOCLDY    81  72  74 S9        30.01S
LONGVIEW       PTCLDY    79  70  74 S7        30.02R
PALESTINE      CLEAR     81  73  76 SE3       30.03S
NACOGDOCHES    CLEAR    N/A N/A N/A S6        30.04R
$$

TEXAS HILL COUNTRY AND EDWARDS PLATEAU

CITY           SKY/WX    TMP DP  RH WIND       PRES   REMARKS
LLANO          PTCLDY    82  72  69 S6        30.01R
HORSESHOE BAY  FAIR      80  72  75 S10G17    29.99R
KERRVILLE      MOCLDY    77  72  85 S13       30.02R
FREDERICKSBRG  PTCLDY    77  70  78 S7        30.01R
ROCKSPRINGS    PTCLDY    79  68  69 SE12G18   30.03R
HONDO          CLEAR     80  74  81 SE9       29.98R
UVALDE         CLEAR     80  74  82 SE8       29.96R
DEL RIO        MOCLDY    85  68  56 E10       29.89R
$$

SOUTHEAST TEXAS

CITY           SKY/WX    TMP DP  RH WIND       PRES   REMARKS
COLLEGE STN    CLEAR     81  74  79 S7        30.03R
CALDWELL       CLEAR     79  75  89 SE5       30.05R
CROCKETT       CLEAR     81  77  89 SE3       30.06R
BRENHAM        CLEAR     81  75  82 S5        30.03R
HUNTSVILLE     PTCLDY    81  73  76 CALM      30.05R
CONROE         PTCLDY    80  73  79 SE3       30.04R
HOUSTON BUSH   MOCLDY    82  75  79 S7        30.03R
HOUSTON HOBBY  PTCLDY    81  76  84 S8        30.01R
PERLAND        PTCLDY    83  76  79 SE5       30.03R
WHARTON        CLEAR     78  76  94 SE6       30.01R
$$

THE UPPER TEXAS COAST

CITY           SKY/WX    TMP DP  RH WIND       PRES   REMARKS
ORANGE         PTCLDY    83  72  69 S8        30.05R
PORT ARTHUR    MOCLDY    81  76  84 S8        30.03R
GALVESTON      MOCLDY    84  79  85 S14       30.03R
ANGLETON       PTCLDY    82  78  88 S8        30.01R
BAY CITY       CLOUDY    82  80  91 SE6       30.00R
$$

TEXAS COASTAL BEND, RIO GRANDE PLAINS DEEP SOUTH TEXAS

CITY           SKY/WX    TMP DP  RH WIND       PRES   REMARKS
VICTORIA       CLOUDY    81  78  91 S6        29.99R
BEEVILLE       FAIR      80  80 100 S13       29.97R
ROCKPORT       LGT RAIN  83  78  85 S14G20    29.96R
PORT ARANSAS     N/A     81  79  94 S10       29.97R
PORT LAVACA    PTCLDY    81  79  94 SE8       29.99R
CORPUS CHRISTI CLOUDY    83  78  85 S18G24    29.96R
KINGSVILLE NAS PTCLDY    82  80  94 SE14      29.95R
COTULLA        CLEAR     84  73  69 SE12      29.93R
LAREDO         PTCLDY    86  73  64 SE20      29.93R
BROWNSVILLE    CLEAR     82  78  88 S13       29.96R
PORT ISABEL    CLEAR     82  79  90 S13       29.95S
HEBBRONVILLE     N/A     80  73  80 SE10      29.95R
MCALLEN        CLEAR     84  76  76 SE15G23   29.94R
WESLACO        CLEAR     81  75  82 S10G20    29.94S
FALFURRIAS     CLEAR     81  75  83 SE8       29.94R
EDINBURG       CLEAR     83  75  78 SE10G16   29.94S
$$



USA.gov is the U.S. government's official web portal to all federal, state and local government web resources and services.